SAS1635 ENBR-LOWW

Flight info

Callsign SAS1635
Flight time 2h 10m
Altitude 35000
Route TINIG DCT NEDIK DCT HDO DCT EVIKU DCT BITSI DCT MIKOV MIKOV8W
Aircraft A320/M-SDE3FGHIRWY/LB1

Departure

Time 2026-04-22 17:34
Airport Bergen Airport, Flesland (ENBR)

Arrival

Time 2026-04-22 19:45
Airport Vienna International Airport (LOWW)
Time Latitude Longitude Altitude Speed Heading
2026-04-22 17:12 60.28932 5.22547 175 ft 0 kts 108°
2026-04-22 17:25 60.28934 5.22532 175 ft 2 kts 108°
2026-04-22 17:26 60.28940 5.22499 175 ft 2 kts 108°
2026-04-22 17:26 60.28945 5.22466 175 ft 2 kts 108°
2026-04-22 17:26 60.28953 5.22438 175 ft 2 kts 132°
2026-04-22 17:26 60.28964 5.22413 175 ft 2 kts 132°
2026-04-22 17:27 60.28975 5.22388 175 ft 2 kts 132°
2026-04-22 17:27 60.28979 5.22380 175 ft 0 kts 132°
2026-04-22 17:30 60.28978 5.22382 175 ft 1 kts 133°
2026-04-22 17:30 60.28959 5.22389 175 ft 5 kts 181°
2026-04-22 17:30 60.28929 5.22313 173 ft 10 kts 238°
2026-04-22 17:30 60.28848 5.22305 170 ft 14 kts 169°
2026-04-22 17:31 60.28746 5.22344 169 ft 16 kts 170°
2026-04-22 17:31 60.28621 5.22375 166 ft 20 kts 174°
2026-04-22 17:31 60.28471 5.22429 163 ft 20 kts 171°
2026-04-22 17:31 60.28363 5.22463 160 ft 12 kts 171°
2026-04-22 17:32 60.28291 5.22436 157 ft 10 kts 234°
2026-04-22 17:32 60.28279 5.22296 154 ft 13 kts 264°
2026-04-22 17:32 60.28277 5.22184 154 ft 4 kts 294°
2026-04-22 17:32 60.28296 5.22165 154 ft 0 kts 348°
2026-04-22 17:33 60.28304 5.22161 155 ft 7 kts 348°
2026-04-22 17:34 60.28595 5.22058 160 ft 76 kts 351°
2026-04-22 17:34 60.29313 5.21821 156 ft 131 kts 350°
2026-04-22 17:34 60.30314 5.21492 476 ft 145 kts 348°
2026-04-22 17:34 60.31289 5.21213 1308 ft 137 kts 351°
2026-04-22 17:35 60.32232 5.20962 1761 ft 147 kts 352°
2026-04-22 17:35 60.33350 5.20614 1922 ft 173 kts 351°
2026-04-22 17:35 60.34559 5.20165 2361 ft 184 kts 349°
2026-04-22 17:35 60.35868 5.19665 2698 ft 202 kts 353°
2026-04-22 17:36 60.37329 5.20015 2995 ft 227 kts 24°
2026-04-22 17:36 60.38511 5.22289 3502 ft 249 kts 63°
2026-04-22 17:36 60.38758 5.25797 4280 ft 264 kts 98°
2026-04-22 17:36 60.38036 5.29279 5099 ft 275 kts 119°
2026-04-22 17:37 60.36883 5.32426 5922 ft 281 kts 127°
2026-04-22 17:37 60.35579 5.35427 6739 ft 287 kts 130°
2026-04-22 17:37 60.34254 5.38505 7461 ft 293 kts 127°
2026-04-22 17:37 60.33000 5.41761 8241 ft 295 kts 124°
2026-04-22 17:38 60.31794 5.45147 9012 ft 299 kts 122°
2026-04-22 17:38 60.30610 5.48631 9767 ft 303 kts 121°
2026-04-22 17:38 60.29429 5.52182 10489 ft 307 kts 121°
2026-04-22 17:38 60.28210 5.55859 10819 ft 326 kts 121°
2026-04-22 17:39 60.26903 5.59790 10962 ft 349 kts 122°
2026-04-22 17:39 60.25503 5.63969 11065 ft 370 kts 122°
2026-04-22 17:39 60.22538 5.72744 12096 ft 383 kts 123°
2026-04-22 17:40 60.21028 5.77177 12758 ft 385 kts 123°
2026-04-22 17:40 60.19509 5.81621 13426 ft 386 kts 123°
2026-04-22 17:40 60.17983 5.86087 14102 ft 388 kts 123°
2026-04-22 17:40 60.16449 5.90565 14684 ft 390 kts 123°
2026-04-22 17:41 60.14902 5.95074 15254 ft 393 kts 123°
2026-04-22 17:41 60.13351 5.99603 15806 ft 395 kts 123°
2026-04-22 17:41 60.11788 6.04157 16354 ft 398 kts 123°
2026-04-22 17:41 60.10212 6.08728 16924 ft 400 kts 123°
2026-04-22 17:42 60.08620 6.13324 17485 ft 403 kts 123°
2026-04-22 17:42 60.07558 6.16381 17880 ft 405 kts 124°
2026-04-22 17:42 60.05939 6.21021 18474 ft 407 kts 124°
2026-04-22 17:42 60.04311 6.25687 18999 ft 410 kts 124°
2026-04-22 17:43 60.02667 6.30359 19514 ft 412 kts 126°
2026-04-22 17:43 60.00748 6.34655 20061 ft 414 kts 136°
2026-04-22 17:43 59.98480 6.38230 20575 ft 417 kts 146°
2026-04-22 17:43 59.95999 6.41283 21078 ft 419 kts 147°
2026-04-22 17:44 59.93508 6.44331 21539 ft 421 kts 147°
2026-04-22 17:44 59.91009 6.47396 21989 ft 423 kts 147°
2026-04-22 17:44 59.88532 6.50438 22401 ft 424 kts 147°
2026-04-22 17:44 59.86013 6.53521 22828 ft 426 kts 147°
2026-04-22 17:45 59.83480 6.56614 23236 ft 428 kts 147°
2026-04-22 17:45 59.80934 6.59717 23591 ft 431 kts 146°
2026-04-22 17:45 59.78369 6.62836 23927 ft 433 kts 146°
2026-04-22 17:45 59.75796 6.65955 24260 ft 435 kts 146°
2026-04-22 17:46 59.73211 6.69087 24582 ft 436 kts 146°
2026-04-22 17:46 59.70611 6.72226 24922 ft 438 kts 146°
2026-04-22 17:46 59.68010 6.75357 25288 ft 438 kts 146°
2026-04-22 17:46 59.65400 6.78490 25623 ft 440 kts 146°
2026-04-22 17:47 59.62783 6.81628 25945 ft 441 kts 146°
2026-04-22 17:47 59.60159 6.84771 26328 ft 440 kts 146°
2026-04-22 17:47 59.57548 6.87894 26784 ft 438 kts 146°
2026-04-22 17:47 59.54949 6.91003 27224 ft 437 kts 146°
2026-04-22 17:48 59.52353 6.94110 27673 ft 435 kts 146°
2026-04-22 17:48 59.49770 6.97195 28144 ft 434 kts 146°
2026-04-22 17:48 59.47194 7.00263 28616 ft 432 kts 146°
2026-04-22 17:48 59.44625 7.03312 29083 ft 430 kts 146°
2026-04-22 17:49 59.42064 7.06341 29556 ft 429 kts 147°
2026-04-22 17:49 59.39511 7.09349 30046 ft 427 kts 146°
2026-04-22 17:49 59.36964 7.12352 30517 ft 426 kts 146°
2026-04-22 17:49 59.34424 7.15350 30846 ft 426 kts 146°
2026-04-22 17:50 59.31885 7.18343 31220 ft 425 kts 146°
2026-04-22 17:50 59.29342 7.21336 31635 ft 424 kts 146°
2026-04-22 17:50 59.26844 7.24267 32030 ft 422 kts 146°
2026-04-22 17:50 59.24330 7.27212 32451 ft 421 kts 146°
2026-04-22 17:51 59.21819 7.30149 32896 ft 419 kts 146°
2026-04-22 17:51 59.19318 7.33061 33319 ft 418 kts 146°
2026-04-22 17:51 59.16827 7.35953 33740 ft 416 kts 146°
2026-04-22 17:51 59.14342 7.38830 34149 ft 414 kts 145°
2026-04-22 17:52 59.11870 7.41692 34514 ft 413 kts 145°
2026-04-22 17:52 59.09399 7.44553 34858 ft 411 kts 145°
2026-04-22 17:52 59.06945 7.47392 35209 ft 409 kts 145°
2026-04-22 17:53 59.02019 7.53083 35304 ft 417 kts 146°
2026-04-22 17:53 58.96973 7.58891 35301 ft 425 kts 146°
2026-04-22 17:54 58.91876 7.64728 35276 ft 427 kts 145°
2026-04-22 17:54 58.86746 7.70591 35276 ft 429 kts 145°
2026-04-22 17:55 58.81634 7.76391 35278 ft 429 kts 145°
2026-04-22 17:55 58.76485 7.82228 35286 ft 429 kts 145°
2026-04-22 17:56 58.71341 7.88041 35277 ft 429 kts 146°
2026-04-22 17:56 58.66192 7.93840 35277 ft 428 kts 146°
2026-04-22 17:57 58.61049 7.99612 35271 ft 428 kts 146°
2026-04-22 17:57 58.55893 8.05365 35255 ft 428 kts 146°
2026-04-22 17:58 58.50744 8.11104 35259 ft 428 kts 146°
2026-04-22 17:58 58.45588 8.16849 35250 ft 429 kts 145°
2026-04-22 17:59 58.40416 8.22568 35223 ft 431 kts 146°
2026-04-22 17:59 58.35218 8.28297 35243 ft 431 kts 146°
2026-04-22 18:00 58.30890 8.33055 35243 ft 432 kts 146°
2026-04-22 18:00 58.24803 8.39721 35256 ft 432 kts 146°
2026-04-22 18:01 58.19589 8.45399 35262 ft 432 kts 146°
2026-04-22 18:01 58.14377 8.51070 35255 ft 431 kts 146°
2026-04-22 18:02 58.09174 8.56705 35249 ft 431 kts 146°
2026-04-22 18:02 58.03973 8.62330 35249 ft 431 kts 145°
2026-04-22 18:03 57.98767 8.67953 35246 ft 432 kts 146°
2026-04-22 18:03 57.93539 8.73564 35245 ft 432 kts 146°
2026-04-22 18:04 57.88330 8.79120 35255 ft 433 kts 146°
2026-04-22 18:04 57.83094 8.84687 35263 ft 432 kts 146°
2026-04-22 18:05 57.77860 8.90243 35269 ft 432 kts 146°
2026-04-22 18:05 57.72633 8.95788 35258 ft 432 kts 146°
2026-04-22 18:06 57.67404 9.01320 35270 ft 432 kts 146°
2026-04-22 18:06 57.62164 9.06823 35264 ft 432 kts 146°
2026-04-22 18:07 57.56919 9.12319 35293 ft 432 kts 146°
2026-04-22 18:07 57.51698 9.17761 35286 ft 432 kts 146°
2026-04-22 18:08 57.46446 9.23220 35287 ft 432 kts 146°
2026-04-22 18:08 57.41198 9.28670 35282 ft 432 kts 146°
2026-04-22 18:09 57.35950 9.34104 35288 ft 432 kts 146°
2026-04-22 18:09 57.30699 9.39522 35288 ft 432 kts 146°
2026-04-22 18:10 57.25451 9.44910 35297 ft 431 kts 146°
2026-04-22 18:10 57.20207 9.50280 35297 ft 430 kts 146°
2026-04-22 18:11 57.14967 9.55622 35305 ft 431 kts 146°
2026-04-22 18:11 57.09726 9.60961 35295 ft 431 kts 146°
2026-04-22 18:12 57.04480 9.66295 35285 ft 431 kts 146°
2026-04-22 18:12 57.00106 9.70716 35300 ft 431 kts 146°
2026-04-22 18:13 56.93957 9.76902 35299 ft 431 kts 146°
2026-04-22 18:13 56.88704 9.82168 35297 ft 430 kts 146°
2026-04-22 18:14 56.83448 9.87422 35292 ft 430 kts 146°
2026-04-22 18:14 56.78202 9.92660 35287 ft 430 kts 146°
2026-04-22 18:15 56.73840 9.97010 35296 ft 430 kts 146°
2026-04-22 18:15 56.67682 10.03115 35300 ft 430 kts 146°
2026-04-22 18:16 56.62421 10.08310 35291 ft 430 kts 146°
2026-04-22 18:16 56.57190 10.13463 35294 ft 430 kts 146°
2026-04-22 18:17 56.51891 10.18676 35292 ft 430 kts 146°
2026-04-22 18:17 56.46649 10.23811 35288 ft 430 kts 146°
2026-04-22 18:18 56.41377 10.28943 35311 ft 431 kts 146°
2026-04-22 18:18 56.36109 10.34065 35303 ft 430 kts 146°
2026-04-22 18:19 56.30843 10.39188 35311 ft 429 kts 146°
2026-04-22 18:19 56.25564 10.44292 35303 ft 430 kts 146°
2026-04-22 18:20 56.20290 10.49363 35292 ft 430 kts 146°
2026-04-22 18:20 56.15009 10.54426 35284 ft 430 kts 146°
2026-04-22 18:21 56.09771 10.59442 35303 ft 430 kts 146°
2026-04-22 18:21 56.04497 10.64475 35301 ft 429 kts 146°
2026-04-22 18:22 55.99228 10.69484 35294 ft 429 kts 146°
2026-04-22 18:22 55.93961 10.74479 35290 ft 428 kts 146°
2026-04-22 18:23 55.88698 10.79465 35285 ft 428 kts 146°
2026-04-22 18:23 55.83429 10.84433 35284 ft 428 kts 146°
2026-04-22 18:24 55.76419 10.91013 35297 ft 427 kts 146°
2026-04-22 18:25 55.68526 10.98391 35291 ft 427 kts 146°
2026-04-22 18:25 55.63265 11.03283 35289 ft 427 kts 146°
2026-04-22 18:26 55.55389 11.10611 35289 ft 426 kts 146°
2026-04-22 18:26 55.50129 11.15474 35289 ft 427 kts 146°
2026-04-22 18:27 55.44865 11.20318 35290 ft 427 kts 146°
2026-04-22 18:27 55.39596 11.25166 35285 ft 428 kts 146°
2026-04-22 18:28 55.34352 11.29979 35287 ft 428 kts 146°
2026-04-22 18:28 55.29065 11.34795 35283 ft 428 kts 146°
2026-04-22 18:29 55.23770 11.39608 35301 ft 428 kts 146°
2026-04-22 18:29 55.18484 11.44410 35296 ft 428 kts 146°
2026-04-22 18:30 55.10558 11.51578 35294 ft 427 kts 146°
2026-04-22 18:31 55.05265 11.56349 35311 ft 427 kts 146°
2026-04-22 18:31 54.99970 11.61115 35300 ft 428 kts 146°
2026-04-22 18:32 54.94674 11.65860 35308 ft 428 kts 146°
2026-04-22 18:32 54.89377 11.70588 35299 ft 428 kts 146°
2026-04-22 18:33 54.84076 11.75296 35298 ft 428 kts 146°
2026-04-22 18:33 54.78784 11.79996 35291 ft 427 kts 146°
2026-04-22 18:34 54.73495 11.84686 35299 ft 427 kts 146°
2026-04-22 18:34 54.68196 11.89355 35292 ft 427 kts 146°
2026-04-22 18:35 54.62897 11.94013 35300 ft 427 kts 146°
2026-04-22 18:35 54.57643 11.98620 35288 ft 426 kts 146°
2026-04-22 18:36 54.52349 12.03256 35288 ft 427 kts 146°
2026-04-22 18:36 54.47025 12.07793 35280 ft 429 kts 148°
2026-04-22 18:37 54.41501 12.11805 35289 ft 432 kts 151°
2026-04-22 18:37 54.35898 12.15563 35306 ft 432 kts 151°
2026-04-22 18:38 54.30312 12.19369 35302 ft 431 kts 150°
2026-04-22 18:38 54.24760 12.23261 35294 ft 430 kts 150°
2026-04-22 18:39 54.16487 12.29069 35310 ft 431 kts 150°
2026-04-22 18:39 54.10934 12.32924 35318 ft 431 kts 150°
2026-04-22 18:40 54.05377 12.36766 35306 ft 431 kts 150°
2026-04-22 18:40 53.99824 12.40601 35303 ft 430 kts 150°
2026-04-22 18:41 53.94266 12.44426 35302 ft 430 kts 150°
2026-04-22 18:41 53.88708 12.48239 35296 ft 430 kts 150°
2026-04-22 18:42 53.83157 12.52032 35319 ft 430 kts 150°
2026-04-22 18:42 53.77612 12.55816 35309 ft 429 kts 150°
2026-04-22 18:43 53.72114 12.59563 35317 ft 429 kts 150°
2026-04-22 18:43 53.66571 12.63337 35308 ft 429 kts 150°
2026-04-22 18:44 53.61031 12.67089 35303 ft 430 kts 150°
2026-04-22 18:44 53.55468 12.70837 35312 ft 430 kts 150°
2026-04-22 18:45 53.49920 12.74572 35304 ft 429 kts 150°
2026-04-22 18:45 53.44370 12.78301 35307 ft 429 kts 150°
2026-04-22 18:46 53.38822 12.82013 35305 ft 429 kts 150°
2026-04-22 18:46 53.33312 12.85689 35304 ft 429 kts 150°
2026-04-22 18:47 53.27764 12.89382 35312 ft 429 kts 150°
2026-04-22 18:47 53.22218 12.93064 35315 ft 429 kts 150°
2026-04-22 18:48 53.16672 12.96744 35306 ft 429 kts 150°
2026-04-22 18:48 53.11114 13.00411 35302 ft 429 kts 150°
2026-04-22 18:49 53.05555 13.04070 35306 ft 429 kts 150°
2026-04-22 18:49 52.99995 13.07714 35321 ft 429 kts 150°
2026-04-22 18:50 52.94424 13.11346 35315 ft 429 kts 150°
2026-04-22 18:50 52.88871 13.14964 35311 ft 428 kts 150°
2026-04-22 18:51 52.83358 13.18564 35308 ft 428 kts 150°
2026-04-22 18:51 52.77817 13.22161 35315 ft 429 kts 150°
2026-04-22 18:52 52.72263 13.25759 35305 ft 429 kts 150°
2026-04-22 18:52 52.66704 13.29362 35300 ft 430 kts 150°
2026-04-22 18:53 52.61126 13.32949 35294 ft 430 kts 150°
2026-04-22 18:53 52.55516 13.36542 35292 ft 430 kts 150°
2026-04-22 18:54 52.49933 13.40107 35290 ft 430 kts 150°
2026-04-22 18:54 52.44393 13.43646 35303 ft 430 kts 150°
2026-04-22 18:55 52.38811 13.47196 35297 ft 430 kts 150°
2026-04-22 18:55 52.33234 13.50736 35303 ft 430 kts 150°
2026-04-22 18:56 52.27654 13.54281 35294 ft 431 kts 150°
2026-04-22 18:56 52.22066 13.57825 35311 ft 431 kts 150°
2026-04-22 18:57 52.16470 13.61342 35305 ft 431 kts 150°
2026-04-22 18:57 52.10863 13.64851 35302 ft 431 kts 150°
2026-04-22 18:58 52.05266 13.68355 35297 ft 431 kts 150°
2026-04-22 18:58 51.99672 13.71856 35296 ft 431 kts 150°
2026-04-22 18:59 51.94073 13.75348 35313 ft 431 kts 150°
2026-04-22 18:59 51.88471 13.78835 35313 ft 431 kts 150°
2026-04-22 19:00 51.82866 13.82304 35306 ft 432 kts 150°
2026-04-22 19:00 51.77252 13.85765 35298 ft 432 kts 150°
2026-04-22 19:01 51.71638 13.89232 35294 ft 432 kts 150°
2026-04-22 19:01 51.66020 13.92689 35302 ft 432 kts 151°
2026-04-22 19:02 51.60384 13.96141 35291 ft 432 kts 151°
2026-04-22 19:02 51.54792 13.99569 35284 ft 433 kts 151°
2026-04-22 19:03 51.49166 14.03006 35288 ft 433 kts 151°
2026-04-22 19:03 51.43535 14.06437 35310 ft 433 kts 151°
2026-04-22 19:04 51.37896 14.09855 35289 ft 434 kts 152°
2026-04-22 19:04 51.32235 14.13262 35280 ft 435 kts 152°
2026-04-22 19:05 51.26573 14.16681 35283 ft 435 kts 152°
2026-04-22 19:05 51.20906 14.20103 35281 ft 435 kts 152°
2026-04-22 19:06 51.16190 14.22941 35286 ft 436 kts 152°
2026-04-22 19:07 51.07660 14.28056 35281 ft 437 kts 152°
2026-04-22 19:07 51.01957 14.31450 35296 ft 438 kts 152°
2026-04-22 19:08 50.96247 14.34841 35285 ft 438 kts 152°
2026-04-22 19:08 50.90405 14.37785 35299 ft 446 kts 160°
2026-04-22 19:09 50.84360 14.40025 35278 ft 447 kts 160°
2026-04-22 19:09 50.78313 14.42275 35272 ft 447 kts 160°
2026-04-22 19:10 50.72236 14.44525 35280 ft 448 kts 160°
2026-04-22 19:10 50.66202 14.46754 35293 ft 448 kts 160°
2026-04-22 19:11 50.60122 14.48990 35270 ft 449 kts 160°
2026-04-22 19:11 50.54036 14.51226 35270 ft 449 kts 160°
2026-04-22 19:12 50.48071 14.53930 35283 ft 440 kts 149°
2026-04-22 19:12 50.42983 14.58933 35270 ft 426 kts 132°
2026-04-22 19:13 50.38736 14.65338 35271 ft 424 kts 130°
2026-04-22 19:13 50.34479 14.71764 35264 ft 426 kts 130°
2026-04-22 19:14 50.30208 14.78191 35263 ft 426 kts 130°
2026-04-22 19:14 50.25936 14.84634 35265 ft 427 kts 130°
2026-04-22 19:15 50.21657 14.91073 35274 ft 427 kts 130°
2026-04-22 19:15 50.17398 14.97445 35275 ft 427 kts 130°
2026-04-22 19:16 50.13098 15.03853 35268 ft 427 kts 130°
2026-04-22 19:16 50.08796 15.10261 35085 ft 427 kts 130°
2026-04-22 19:16 50.06645 15.13462 34850 ft 425 kts 130°
2026-04-22 19:17 50.04510 15.16637 34606 ft 423 kts 130°
2026-04-22 19:17 50.02379 15.19797 34372 ft 422 kts 130°
2026-04-22 19:17 50.00287 15.22893 34135 ft 420 kts 129°
2026-04-22 19:17 49.98179 15.26013 33854 ft 419 kts 130°
2026-04-22 19:18 49.96062 15.29141 33575 ft 419 kts 130°
2026-04-22 19:18 49.93947 15.32262 33303 ft 420 kts 130°
2026-04-22 19:18 49.91829 15.35387 33034 ft 420 kts 130°
2026-04-22 19:18 49.89712 15.38507 32765 ft 420 kts 130°
2026-04-22 19:19 49.87589 15.41632 32494 ft 421 kts 130°
2026-04-22 19:19 49.85465 15.44751 32232 ft 421 kts 130°
2026-04-22 19:19 49.83333 15.47878 31995 ft 422 kts 130°
2026-04-22 19:19 49.81171 15.51044 31732 ft 423 kts 130°
2026-04-22 19:20 49.79031 15.54170 31472 ft 423 kts 130°
2026-04-22 19:20 49.76891 15.57291 31271 ft 423 kts 130°
2026-04-22 19:20 49.74752 15.60412 31238 ft 423 kts 130°
2026-04-22 19:21 49.70466 15.66664 31254 ft 424 kts 130°
2026-04-22 19:21 49.66201 15.72858 31249 ft 424 kts 130°
2026-04-22 19:22 49.61894 15.79092 31253 ft 424 kts 130°
2026-04-22 19:22 49.59743 15.82201 31061 ft 424 kts 131°
2026-04-22 19:22 49.57343 15.84924 30800 ft 436 kts 145°
2026-04-22 19:22 49.54579 15.86943 30567 ft 439 kts 148°
2026-04-22 19:23 49.51796 15.88888 30342 ft 440 kts 148°
2026-04-22 19:23 49.48998 15.90821 30066 ft 441 kts 148°
2026-04-22 19:23 49.46190 15.92749 29770 ft 442 kts 149°
2026-04-22 19:23 49.43380 15.94676 29484 ft 443 kts 149°
2026-04-22 19:24 49.40562 15.96608 29192 ft 444 kts 149°
2026-04-22 19:24 49.37731 15.98552 28917 ft 446 kts 149°
2026-04-22 19:24 49.34901 16.00502 28638 ft 447 kts 149°
2026-04-22 19:24 49.32054 16.02464 28361 ft 448 kts 149°
2026-04-22 19:25 49.29204 16.04422 28100 ft 449 kts 149°
2026-04-22 19:25 49.26349 16.06381 27830 ft 450 kts 149°
2026-04-22 19:25 49.23490 16.08349 27560 ft 451 kts 149°
2026-04-22 19:25 49.20631 16.10353 27274 ft 452 kts 149°
2026-04-22 19:26 49.17773 16.12377 27007 ft 453 kts 149°
2026-04-22 19:26 49.14907 16.14413 26755 ft 456 kts 149°
2026-04-22 19:26 49.12022 16.16458 26514 ft 458 kts 149°
2026-04-22 19:26 49.09130 16.18496 26250 ft 459 kts 149°
2026-04-22 19:27 49.06221 16.20533 25991 ft 461 kts 149°
2026-04-22 19:27 49.03298 16.22571 25758 ft 462 kts 149°
2026-04-22 19:27 49.00378 16.24598 25511 ft 461 kts 149°
2026-04-22 19:27 48.97500 16.26595 25267 ft 460 kts 149°
2026-04-22 19:28 48.94588 16.28620 25021 ft 460 kts 149°
2026-04-22 19:28 48.91677 16.30644 24781 ft 459 kts 150°
2026-04-22 19:28 48.88777 16.32660 24536 ft 459 kts 150°
2026-04-22 19:28 48.85871 16.34676 24301 ft 458 kts 150°
2026-04-22 19:29 48.82979 16.36680 24051 ft 457 kts 150°
2026-04-22 19:29 48.80113 16.38656 23883 ft 442 kts 150°
2026-04-22 19:29 48.77370 16.40533 23771 ft 425 kts 150°
2026-04-22 19:29 48.74721 16.42346 23631 ft 409 kts 150°
2026-04-22 19:30 48.73021 16.43510 23582 ft 399 kts 149°
2026-04-22 19:30 48.69713 16.45779 23500 ft 382 kts 151°
2026-04-22 19:30 48.67157 16.46785 23445 ft 381 kts 171°
2026-04-22 19:30 48.64528 16.46512 23389 ft 378 kts 184°
2026-04-22 19:31 48.61948 16.45838 23054 ft 375 kts 185°
2026-04-22 19:31 48.59389 16.45136 22643 ft 373 kts 186°
2026-04-22 19:31 48.56849 16.44446 22239 ft 370 kts 186°
2026-04-22 19:31 48.54318 16.43770 21848 ft 368 kts 186°
2026-04-22 19:32 48.51806 16.43111 21319 ft 364 kts 186°
2026-04-22 19:32 48.49320 16.42473 20610 ft 361 kts 186°
2026-04-22 19:32 48.46843 16.41854 19900 ft 358 kts 186°
2026-04-22 19:32 48.44392 16.41261 19234 ft 355 kts 186°
2026-04-22 19:33 48.41955 16.40691 18591 ft 353 kts 186°
2026-04-22 19:33 48.39537 16.40144 17869 ft 350 kts 186°
2026-04-22 19:33 48.37143 16.39901 17192 ft 341 kts 171°
2026-04-22 19:33 48.34886 16.40710 16527 ft 328 kts 151°
2026-04-22 19:34 48.32992 16.42477 15880 ft 316 kts 132°
2026-04-22 19:34 48.31601 16.44947 15222 ft 305 kts 115°
2026-04-22 19:34 48.30735 16.47797 14556 ft 299 kts 106°
2026-04-22 19:34 48.29976 16.50697 13902 ft 298 kts 106°
2026-04-22 19:35 48.29217 16.53590 13210 ft 297 kts 107°
2026-04-22 19:35 48.28462 16.56458 12533 ft 295 kts 107°
2026-04-22 19:35 48.27963 16.58350 12101 ft 294 kts 107°
2026-04-22 19:35 48.26968 16.62111 11252 ft 291 kts 108°
2026-04-22 19:36 48.26221 16.64925 10632 ft 290 kts 108°
2026-04-22 19:36 48.25302 16.67629 10081 ft 293 kts 119°
2026-04-22 19:36 48.24194 16.70150 9942 ft 285 kts 120°
2026-04-22 19:36 48.23100 16.72574 9798 ft 276 kts 121°
2026-04-22 19:37 48.22035 16.74919 9670 ft 268 kts 121°
2026-04-22 19:37 48.20996 16.77194 9508 ft 261 kts 121°
2026-04-22 19:37 48.19975 16.79422 9243 ft 258 kts 121°
2026-04-22 19:37 48.18958 16.81639 8936 ft 257 kts 121°
2026-04-22 19:38 48.17946 16.83844 8634 ft 256 kts 121°
2026-04-22 19:38 48.16938 16.86038 8331 ft 255 kts 121°
2026-04-22 19:38 48.15794 16.88058 8013 ft 258 kts 141°
2026-04-22 19:38 48.14151 16.89115 7696 ft 260 kts 169°
2026-04-22 19:39 48.12349 16.89441 7295 ft 260 kts 175°
2026-04-22 19:39 48.10550 16.89650 6797 ft 259 kts 175°
2026-04-22 19:39 48.08784 16.89844 6298 ft 257 kts 175°
2026-04-22 19:39 48.07020 16.89665 5759 ft 253 kts 198°
2026-04-22 19:40 48.05373 16.88748 5216 ft 251 kts 209°
2026-04-22 19:40 48.04068 16.87125 4674 ft 242 kts 239°
2026-04-22 19:40 48.03316 16.84924 4178 ft 236 kts 261°
2026-04-22 19:40 48.03129 16.82552 3851 ft 227 kts 280°
2026-04-22 19:41 48.03462 16.80310 3597 ft 216 kts 298°
2026-04-22 19:41 48.04112 16.78289 3477 ft 217 kts 301°
2026-04-22 19:41 48.04767 16.76296 3346 ft 210 kts 302°
2026-04-22 19:41 48.05402 16.74365 3106 ft 205 kts 302°
2026-04-22 19:42 48.06022 16.72477 2834 ft 199 kts 302°
2026-04-22 19:42 48.06607 16.70690 2571 ft 184 kts 302°
2026-04-22 19:42 48.07155 16.69016 2347 ft 174 kts 302°
2026-04-22 19:42 48.07665 16.67457 2135 ft 161 kts 303°
2026-04-22 19:43 48.08598 16.64610 1709 ft 141 kts 302°
2026-04-22 19:43 48.09023 16.63312 1491 ft 136 kts 302°
2026-04-22 19:43 48.09430 16.62071 1313 ft 134 kts 300°
2026-04-22 19:44 48.09841 16.60816 1122 ft 133 kts 299°
2026-04-22 19:44 48.10249 16.59574 948 ft 133 kts 298°
2026-04-22 19:44 48.10650 16.58341 768 ft 131 kts 297°
2026-04-22 19:44 48.11044 16.57122 632 ft 126 kts 299°
2026-04-22 19:45 48.11364 16.56150 625 ft 80 kts 295°
2026-04-22 19:45 48.11533 16.55636 624 ft 30 kts 296°
2026-04-22 19:45 48.11614 16.55429 622 ft 23 kts 308°
2026-04-22 19:45 48.11732 16.55243 616 ft 21 kts 316°
2026-04-22 19:46 48.11822 16.55145 622 ft 8 kts 341°
2026-04-22 19:46 48.11859 16.55141 613 ft 4 kts 13°
2026-04-22 19:46 48.11887 16.55181 613 ft 7 kts 77°
2026-04-22 19:46 48.11884 16.55210 612 ft 2 kts 106°
2026-04-22 19:47 48.11873 16.55249 614 ft 7 kts 114°
2026-04-22 19:47 48.11848 16.55328 608 ft 10 kts 116°
2026-04-22 19:47 48.11833 16.55397 615 ft 11 kts 85°
2026-04-22 19:47 48.11945 16.55453 605 ft 13 kts 23°
2026-04-22 19:48 48.12033 16.55520 600 ft 16 kts 28°
2026-04-22 19:48 48.12105 16.55577 595 ft 9 kts 42°
2026-04-22 19:48 48.12094 16.55643 595 ft 4 kts 116°
2026-04-22 19:48 48.12088 16.55661 595 ft 0 kts 117°
2026-04-22 19:49 48.12086 16.55668 595 ft 1 kts 117°